Regional Weather Roundup
Issued by NWS

Home | Current Version | Previous Version | Graphics & Text | Print | Product List | Glossary Off
Versions: 1 2 3 4 5 6 7 8 9 10 11 12 13 14 15 16 17 18 19 20 21 22 23 24 25 26 27 28 29 30 31 32 33 34 35 36 37 38 39 40 41 42 43 44 45 46 47 48 49 50

216
ASUS43 KLSX 191157
RWRMO

WEATHER SUMMARY FOR MISSOURI
NATIONAL WEATHER SERVICE SPRINGFIELD MO
700 AM CDT THU OCT 19 2017

NOTE: "FAIR" INDICATES FEW OR NO CLOUDS BELOW 12,000 FEET WITH NO
       SIGNIFICANT WEATHER AND/OR OBSTRUCTIONS TO VISIBILITY.
       CURRENT SKY AND/OR WEATHER CONDITIONS ARE NOT AVAILABLE FOR
       CHILLICOTHE AND FARMINGTON.

MOZ001>031-035>038-043-044-053-054-191300-
...NORTHERN AND WESTERN MISSOURI...

CITY           SKY/WX    TMP DP  RH WIND       PRES   REMARKS
KANSAS CTY INT CLEAR     49  47  93 S8        30.09R
6HR MIN TEMP:  49; 6HR MAX TEMP:  57;

LEE`S SUMMIT   CLEAR     53  48  83 S7        30.10S
6HR MIN TEMP:  53; 6HR MAX TEMP:  61;

ST JOSEPH      FOG       42  42 100 N3        30.08R VSB 1/4
6HR MIN TEMP:  41; 6HR MAX TEMP:  48;

CHILLICOTHE      N/A     46  45  96 CALM      30.11R
6HR MIN TEMP:  46; 6HR MAX TEMP:  53;


$$
MOZ066>068-077>081-088>096-101>105-191300-
...SOUTHWEST MISSOURI...

CITY           SKY/WX    TMP DP  RH WIND       PRES   REMARKS
SPRINGFIELD    CLEAR     50  47  89 S5        30.16S
6HR MIN TEMP:  47; 6HR MAX TEMP:  57;

JOPLIN         CLEAR     53  48  83 MISG      30.16R
6HR MIN TEMP:  52; 6HR MAX TEMP:  56;


$$
MOZ032>034-039>042-045>050-055>058-069>072-191300-
...CENTRAL MISSOURI...

CITY           SKY/WX    TMP DP  RH WIND       PRES   REMARKS
COLUMBIA       NOT AVBL
JEFFERSON CITY CLEAR     48  44  86 E3        30.15R
6HR MIN TEMP:  47; 6HR MAX TEMP:  52;

SEDALIA        CLEAR     57  49  74 SW9       30.13R
6HR MIN TEMP:  57; 6HR MAX TEMP:  61;

WARRENSBURG    CLEAR     50  45  81 S7        30.11S

$$
MOZ051-052-059>065-191300-
...EAST CENTRAL MISSOURI...

CITY           SKY/WX    TMP DP  RH WIND       PRES   REMARKS
ST LOUIS INTL  PTCLDY    58  49  72 S3        30.16S
6HR MIN TEMP:  54; 6HR MAX TEMP:  60;


$$
MOZ072>076-082>087-097>100-106>115-191300-
...SOUTH CENTRAL AND SOUTHEAST MISSOURI...

CITY           SKY/WX    TMP DP  RH WIND       PRES   REMARKS
CAPE GIRARDEAU CLEAR     50  46  86 S6        30.22S
6HR MIN TEMP:  45; 6HR MAX TEMP:  54;

POPLAR BLUFF   CLEAR     44  44 100 CALM      30.22S
6HR MIN TEMP:  44; 6HR MAX TEMP:  50;

WEST PLAINS    CLEAR     44  42  93 CALM      30.21R FOG
6HR MIN TEMP:  44; 6HR MAX TEMP:  59;


$$



USA.gov is the U.S. government's official web portal to all federal, state and local government web resources and services.